Regional Weather Roundup
Issued by NWS

Home | Current Version | Previous Version | Text Only | Print | Product List | Glossary Off
Versions: 1 2 3 4 5 6 7 8 9 10 11 12 13 14 15 16 17 18 19 20 21 22 23 24 25 26 27 28 29 30 31 32 33 34 35 36 37 38 39 40 41 42 43 44 45 46 47 48 49 50

000
ASUS43 KIND 100409
RWRIN

WEATHER ROUNDUP FOR INDIANA
NATIONAL WEATHER SERVICE INDIANAPOLIS IN
1100 PM EST FRI DEC 09 2016

NOTE: "FAIR" INDICATES FEW OR NO CLOUDS BELOW 12,000 FEET WITH NO
SIGNIFICANT WEATHER AND/OR OBSTRUCTIONS TO VISIBILITY.

* - STATION DOES NOT REPORT WEATHER SUCH AS PRECIPITATION OR FOG.

+ - STATION NOT QUALITY CONTROLLED BY THE NATIONAL WEATHER SERVICE.
    USE DATA WITH CAUTION...ESPECIALLY DEWPOINT AND RELATIVE
    HUMIDITY OBSERVATIONS.

INZ001>003-010>013-019-020-100500-
NORTHWEST INDIANA

CITY           SKY/WX    TMP DP  RH WIND       PRES   REMARKS
GARY /AIRPORT/ CLEAR     20  15  81 CALM      30.52S
KNOX *+        PTCLDY    19  -2  38 W5        30.51S WCI  13
LA PORTE +     CLOUDY    20  13  73 W9        30.49F WCI  10
MICHIGAN CITY+ FLURRIES  23  16  74 SW9       30.50S WCI  13
MONTICELLO +   CLOUDY    22   8  54 W8        30.52S WCI  13
RENSSELAER +     N/A     23  18  80 W3        30.53R
VALPARAISO     CLEAR     18  12  77 CALM      30.51S

$$

LMZ046-743>745-100500-
SOUTHERN LAKE MICHIGAN

STATION/POSITION TIME  TEMP    WIND        PRES    WAVE
                       AIR SEA DIR/SP/G            HT
                 (UTC) (F)     (DEG/KT/KT) (MB)    (FT)

$$

INZ004-005-014>016-021>024-100500-
NORTH CENTRAL INDIANA

CITY           SKY/WX    TMP DP  RH WIND       PRES   REMARKS
GOSHEN         FLURRIES  22  13  68 W15       30.47S WCI   9
LOGANSPORT +   CLOUDY    23  14  68 W7        30.52S WCI  15
PERU/GRISSOM   CLOUDY    23  12  63 W7        30.49S WCI  14
ROCHESTER +    PTCLDY    23  16  74 W8        30.50F WCI  14
SOUTH BEND     FLURRIES  20  14  77 SW14      30.47F WCI   7
WARSAW +       PTCLDY    19  10  68 W8        30.48F WCI   9

$$

INZ006>009-017-018-025>027-100500-
NORTHEAST INDIANA

CITY           SKY/WX    TMP DP  RH WIND       PRES   REMARKS
ANGOLA *+      CLOUDY    21  18  86 W10       30.44R WCI  10
AUBURN +       CLOUDY    25  14  63 W9        30.47S WCI  15
FORT WAYNE     CLOUDY    23  14  68 W13       30.49S WCI  11
HUNTINGTON +   CLOUDY    22  15  72 W10G17    30.49F WCI  11
KENDALLVILLE + FLURRIES  22  15  73 W13G21    30.46R WCI  10

$$

INZ028-029-035-036-043>045-051>053-100500-
WEST CENTRAL INDIANA

CITY           SKY/WX    TMP DP  RH WIND       PRES   REMARKS
CRAWFORDSVL +  CLOUDY    21  17  84 W7        30.53S WCI  12
GREENCASTLE +  CLOUDY    23  19  86 W3        30.54R
LAFAYETTE      CLOUDY    23  17  78 W5        30.53S WCI  17
TERRE HAUTE    CLOUDY    24  14  65 W8        30.56S WCI  15

$$

INZ030>032-037>040-046>048-054>057-064-065-100500-
CENTRAL INDIANA

CITY           SKY/WX    TMP DP  RH WIND       PRES   REMARKS
CP ATTERBURY + CLOUDY    23  19  86 W3        30.54R
FISHERS *+     CLOUDY    21  19  93 CALM      30.52
FRANKFORT +    LGT SNOW  26  20  80 NW9       30.53R WCI  16
GREENWOOD *+   CLEAR     23  17  78 W3        30.52S
INDIANAPOLIS   PTCLDY    20  14  77 W6        30.51S WCI  12
-EAGLE CREEK   MOCLDY    22  14  71 W5        30.51S WCI  16
KOKOMO +       FLURRIES  23  16  74 NW12      30.51S WCI  12
MARION +       CLOUDY    23  17  80 W7        30.51S WCI  14
MT COMFORT *+  CLEAR     19  14  79 W6        30.51S WCI  11
SHELBYVILLE    MOCLDY    22  15  75 W6        30.51S WCI  14
ZIONSVILLE +   CLOUDY    22  18  81 W5        30.51S WCI  16

$$

INZ033-034-041-042-049-050-058-059-100500-
EAST CENTRAL INDIANA

CITY           SKY/WX    TMP DP  RH WIND       PRES   REMARKS
MUNCIE         CLOUDY    23  19  85 W5        30.50S WCI  17

$$

INZ060-061-067>069-081>083-085>088-100500-
SOUTHWEST INDIANA

CITY           SKY/WX    TMP DP  RH WIND       PRES   REMARKS
EVANSVILLE     CLEAR     20  15  81 CALM      30.59S
HUNTINGBURG *+ PTCLDY    19  16  86 S3        30.58R
WASHINGTON +   CLEAR     22  20  92 CALM      30.57R

$$

INZ062-063-066-070>080-084-089>092-100500-
SOUTH CENTRAL AND SOUTHEAST INDIANA

CITY           SKY/WX    TMP DP  RH WIND       PRES   REMARKS
BLOOMINGTON    MOCLDY    19  15  84 CALM      30.53S
MADISON *+     CLEAR     21  18  86 CALM      30.54F
NORTH VERNON + CLEAR     19  19 100 CALM      30.53F
SEYMOUR +      CLEAR     19  16  86 CALM      30.55S

$$





USA.gov is the U.S. government's official web portal to all federal, state and local government web resources and services.